Overview Statistics Trail Chart Weather Telemetry Raw packets
 

This is the latest recevied weather packets stored in our database for station/object WX5KDM. If no packets are shown the sender has not sent any weather packets the latest 10 day(s).

<< 31 32 33 34 35 36 37 >>
Time Temp. Humidity Pressure Rain* Wind** Luminosity Snow
1788407308 26.11° C 86% 1016.6 hPa 0 mm - - -
1788407003 26.67° C 85% 1016.7 hPa 0 mm - - -
1788406698 26.67° C 83% 1016.5 hPa 0 mm - - -
1788406393 26.67° C 83% 1016.6 hPa 0 mm - - -
1788406093 26.67° C 81% 1016.8 hPa 0 mm - - -
1788405789 27.22° C 81% 1016.8 hPa 0 mm - - -
1788405484 26.67° C 81% 1016.6 hPa 0 mm - - -
1788405183 26.67° C 82% 1016.9 hPa 0 mm - - -
1788404879 26.67° C 83% 1016.8 hPa 0 mm - - -
1788404575 26.67° C 82% 1016.9 hPa 0 mm - - -
1788404270 27.22° C 82% 1016.7 hPa 0 mm - - -
1788403966 27.22° C 82% 1016.7 hPa 0 mm - - -
1788403666 27.78° C 80% 1016.7 hPa 0 mm - - -
1788403365 27.78° C 77% 1016.7 hPa 0 mm - - -
1788403061 27.78° C 79% 1016.6 hPa 0 mm - - -
1788402756 28.33° C 78% 1016.7 hPa 0 mm - - -
1788402451 28.33° C 75% 1016.6 hPa 0 mm - - -
1788402150 28.89° C 75% 1016.5 hPa 0 mm - - -
1788401845 28.89° C 74% 1016.5 hPa 0 mm - - -
1788401539 28.89° C 75% 1016.5 hPa 0 mm - - -
1788401234 28.89° C 70% 1016.4 hPa 0 mm - - -
1788400929 28.89° C 70% 1016.4 hPa 0 mm - - -
1788400624 29.44° C 71% 1016.3 hPa 0 mm - - -
1788400320 29.44° C 70% 1016.1 hPa 0 mm - - -
1788400020 29.44° C 68% 1016.2 hPa 0 mm - - -

* Rain latest hour (hover to see other rain measurements)
** Current wind speed in m/s (hover to see current wind gust speed)